Location: Unspecified
(0.0000°N, 1.0000°E)
Time: 01:34:01
(UTC+02:00)

Amateur Radio Satellites - All Passes

Search period start: 17 August 2017 01:04
Search period end: 18 August 2017 01:04
Location: Unspecified, 0.0000°N, 1.0000°E

Satellite Date Start Highest point End Downlink Frequencies (MHz)
Time Altitude Azimuth
RS-15 17 Aug 01:11:10 01:21:16 39° 249° (WSW) 01:31:08 29.354- 29.394
ESTCUBE 1 17 Aug 01:16:18 01:20:44 64° 258° (WSW) 01:25:10 437.505/2401.250
DUCHIFAT 1 17 Aug 01:22:46 01:26:48 51° 102° (ESE) 01:30:54 145.980
NO-84 17 Aug 01:24:34 01:27:38 32° 123° (ESE) 01:30:28 435.350 FM
BUGSAT 1 17 Aug 01:44:05 01:46:50 18° 102° (ESE) 01:49:37 437.445
VELOX 1 17 Aug 01:45:03 01:49:12 38° 78° (ENE) 01:53:19 145.980
SRMSAT 17 Aug 01:53:27 01:59:05 41° 200° (SSW) 02:04:45 437.500
JUGNU 17 Aug 01:56:45 01:59:17 13° 189° (S) 02:01:49 437.505
Oscar 19 17 Aug 02:00:46 02:02:43 12° 103° (ESE) 02:04:41 437.125/150
DX 1 17 Aug 02:04:37 02:06:53 14° 78° (ENE) 02:09:08 434.975-435.025
NANOSAT C BR1 17 Aug 02:05:18 02:08:58 30° 282° (WNW) 02:12:41 145.865
POLYITAN 1 17 Aug 02:05:21 02:08:53 26° 282° (WNW) 02:12:27 437.675
QB50P2 17 Aug 02:21:21 02:23:40 15° 282° (WNW) 02:26:00 145.880/145.840
EO-79 17 Aug 02:23:46 02:26:11 15° 282° (WNW) 02:28:37 145.935-145.965
50 SAT 17 Aug 02:23:59 02:27:10 38° 79° (E) 02:30:21 437.505
SPROUT 17 Aug 02:30:44 02:34:34 32° 258° (WSW) 02:38:23 437.525
Gurwin Techsat 1B 17 Aug 02:33:03 02:36:39 19° 103° (ESE) 02:40:16 435.225
BUGSAT 1 17 Aug 03:19:30 03:21:55 16° 282° (WNW) 03:24:22 437.445
UKube-1 17 Aug 03:27:04 03:31:21 62° 257° (WSW) 03:35:37 .
Oscar 19 17 Aug 03:36:54 03:41:44 40° 283° (WNW) 03:46:35 437.125/150
DX 1 17 Aug 03:39:14 03:42:47 24° 258° (WSW) 03:46:20 434.975-435.025
AO-7 17 Aug 03:42:54 03:47:21 16° 107° (ESE) 03:51:48 .
BEESAT 17 Aug 03:43:58 03:45:15 11° 77° (ENE) 03:46:32 436.000
SRMSAT 17 Aug 03:44:41 03:48:41 18° 194° (SSW) 03:52:42 437.500
YUBILEINY 17 Aug 04:03:41 04:08:26 16° 87° (E) 04:13:10 435.215
MOZHAYETS 4 17 Aug 04:08:29 04:11:40 19° 78° (ENE) 04:14:49
Gurwin Techsat 1B 17 Aug 04:11:51 04:16:18 28° 283° (WNW) 04:20:48 435.225
ITUPSAT 1 17 Aug 04:12:12 04:16:15 28° 78° (ENE) 04:20:16 437.325
ITAMSAT 1 17 Aug 04:45:49 04:50:43 44° 103° (ESE) 04:55:38 435.822/435.867
BEESAT 17 Aug 05:18:22 05:22:45 36° 257° (WSW) 05:27:05 436.000
AO-7 17 Aug 05:31:31 05:39:41 65° 286° (WNW) 05:47:52 .
JUGNU 17 Aug 05:36:27 05:39:36 14° 169° (SSE) 05:42:46 437.505
SRMSAT 17 Aug 05:37:40 05:38:50 11° 185° (S) 05:40:01 437.500
MOZHAYETS 4 17 Aug 05:45:15 05:48:32 20° 258° (WSW) 05:51:50
BEESAT 3 17 Aug 05:48:47 05:52:30 44° 111° (ESE) 05:56:15 437.485
ITUPSAT 1 17 Aug 05:51:06 05:53:48 15° 257° (WSW) 05:56:28 437.325
CUBESAT XI-V 17 Aug 05:51:08 05:55:41 61° 78° (ENE) 06:00:14 437.345
BEESAT 2 17 Aug 05:54:32 05:55:17 10° 112° (ESE) 05:56:03 435.950
YUBILEINY 17 Aug 05:56:20 06:04:48 60° 267° (W) 06:13:21 435.215
AO-85 17 Aug 06:02:20 06:06:30 42° 113° (ESE) 06:10:23 145.980
DOVE 4 17 Aug 06:17:04 06:19:57 18° 101° (E) 06:22:47 437.250
ITAMSAT 1 17 Aug 06:28:54 06:29:54 11° 283° (WNW) 06:30:54 435.822/435.867
KKS-1 17 Aug 06:29:20 06:33:49 78° 78° (ENE) 06:38:17 437.445
KAITUO 1B 17 Aug 07:17:36 07:20:36 22° 101° (ESE) 07:23:35 145.475/437.950
STARS 17 Aug 07:21:15 07:25:38 61° 258° (WSW) 07:29:59 437.465
LilacSat-2 17 Aug 07:21:44 07:25:24 42° 101° (E) 07:29:05 437.200
JUGNU 17 Aug 07:24:01 07:29:14 30° 161° (SSE) 07:34:26 437.505
SRMSAT 17 Aug 07:27:43 07:29:14 11° 174° (S) 07:30:46 437.500
BEESAT 2 17 Aug 07:29:32 07:32:45 25° 292° (WNW) 07:36:01 435.950
XW-2D 17 Aug 07:31:44 07:35:32 60° 102° (ESE) 07:39:19 145.860 - 145.880
XW-2B 17 Aug 07:42:34 07:46:25 87° 101° (E) 07:50:16 145.730 - 145.750
DOVE 4 17 Aug 07:54:41 07:57:23 16° 282° (WNW) 08:00:02 437.250
NUDT-PHONESAT 17 Aug 07:56:37 08:00:22 82° 281° (WNW) 08:04:09 437.300
CUTE-I 17 Aug 08:00:20 08:05:37 83° 285° (WNW) 08:10:57 437.470
XW-2C 17 Aug 08:01:33 08:05:12 43° 281° (W) 08:08:53 145.795 - 145.815
HO-68 17 Aug 08:06:37 08:12:45 31° 105° (ESE) 08:18:55 435.675
XW-2F 17 Aug 08:18:02 08:21:14 26° 281° (W) 08:24:28 145.980 - 146.000
CUTE 1.7 + AOD 2 17 Aug 08:28:12 08:32:12 39° 101° (ESE) 08:36:12 437.475
XW-2A 17 Aug 08:38:14 08:40:50 20° 101° (E) 08:43:28 145.665 - 145.685
AAUSAT CUBESAT 2 17 Aug 08:50:32 08:52:58 15° 102° (ESE) 08:55:23 437.432
KAITUO 1B 17 Aug 08:53:33 08:54:19 10° 281° (WNW) 08:55:05 145.475/437.950
AO-73 17 Aug 09:09:57 09:12:00 13° 103° (ESE) 09:14:04 145.935
JUGNU 17 Aug 09:12:23 09:18:24 80° 159° (SSE) 09:24:23 437.505
SRMSAT 17 Aug 09:15:07 09:19:19 20° 165° (SSE) 09:23:30 437.500
SEEDS 17 Aug 09:24:48 09:28:55 52° 282° (WNW) 09:33:03 437.485
STRAND 1 17 Aug 09:25:08 09:30:06 49° 257° (WSW) 09:35:02 437.568
CUBEBUG 2 17 Aug 09:27:06 09:31:20 65° 281° (WNW) 09:35:46 437.445
ISS 17 Aug 09:29:15 09:30:43 12° 126° (SE) 09:32:11 437.550
UWE-3 17 Aug 09:29:29 09:33:48 66° 102° (ESE) 09:38:15 435.000/436.395/437.385
FO-29 17 Aug 09:34:10 09:37:36 13° 76° (ENE) 09:40:59 435.910
Tancredo 1 17 Aug 09:35:22 09:38:14 52° 305° (NW) 09:41:05 437.200
O/OREOS (USA 219) 17 Aug 09:41:02 09:41:54 10° 105° (ESE) 09:42:45 437.305
nSIGHT-1 17 Aug 09:42:21 09:44:54 21° 126° (SE) 09:47:27 .
HO-68 17 Aug 09:54:15 10:00:09 28° 285° (WNW) 10:06:06 435.675
Oscar 11 17 Aug 09:58:28 10:02:36 43° 102° (ESE) 10:06:45 .
ZACube-1 17 Aug 10:19:42 10:23:56 50° 281° (WNW) 10:28:17 437.345
AAUSAT CUBESAT 2 17 Aug 10:25:08 10:28:09 20° 281° (WNW) 10:31:09 437.432
DELFI C3 17 Aug 10:36:53 10:40:00 22° 101° (ESE) 10:43:06 145.870
RS-15 17 Aug 10:40:34 10:50:22 31° 111° (ESE) 11:00:25 29.354- 29.394
AO-73 17 Aug 10:44:15 10:47:55 27° 281° (W) 10:51:41 145.935
EO-88 17 Aug 10:51:10 10:53:43 18° 102° (ESE) 10:56:14 145.990 - 145.960
PRISM 17 Aug 10:59:27 11:02:11 17° 78° (ENE) 11:04:55 437.425
JUGNU 17 Aug 11:02:01 11:07:30 37° 340° (NNW) 11:12:58 437.505
SRMSAT 17 Aug 11:03:09 11:08:51 46° 160° (SSE) 11:14:30 437.500
ISS 17 Aug 11:04:33 11:07:00 19° 306° (NW) 11:09:26 437.550
SO-50 17 Aug 11:05:33 11:08:27 16° 68° (ENE) 11:11:22 436.795
UNISAT 6 17 Aug 11:05:59 11:10:11 37° 79° (ENE) 11:14:16 437.425
FO-29 17 Aug 11:14:23 11:22:11 73° 257° (WSW) 11:29:56 435.910
O/OREOS (USA 219) 17 Aug 11:17:05 11:21:02 31° 284° (WNW) 11:24:58 437.305
PCSat 17 Aug 11:17:10 11:22:22 49° 71° (ENE) 11:27:33 145.827
Max Valier Satellite 17 Aug 11:19:32 11:23:14 80° 102° (ESE) 11:26:58 145.860
nSIGHT-1 17 Aug 11:19:58 11:21:05 11° 306° (NW) 11:22:12 .
TIGRISAT 17 Aug 11:42:01 11:46:35 74° 259° (W) 11:51:00 435.000
AIST 2D 17 Aug 12:04:07 12:05:16 11° 79° (E) 12:06:25 435.315
DELFI C3 17 Aug 12:13:11 12:14:29 11° 282° (WNW) 12:15:47 145.870
M-CUBED/EXP-1 PRIME 17 Aug 12:21:21 12:24:40 26° 73° (ENE) 12:28:11 437.505
EO-88 17 Aug 12:25:37 12:27:06 12° 281° (WNW) 12:28:35 145.990 - 145.960
PRISM 17 Aug 12:34:27 12:37:11 17° 258° (WSW) 12:39:56 437.425
LO-87 17 Aug 12:34:37 12:38:05 59° 101° (E) 12:41:34 145.935 - 145.965
POLYITAN 1 17 Aug 12:37:20 12:39:38 14° 78° (ENE) 12:41:56 437.675
NANOSAT C BR1 17 Aug 12:37:31 12:39:13 12° 78° (ENE) 12:40:56 145.865
SO-50 17 Aug 12:44:50 12:48:38 25° 248° (WSW) 12:52:29 436.795
QB50P2 17 Aug 12:50:53 12:54:26 26° 78° (ENE) 12:57:59 145.880/145.840
RS-15 17 Aug 12:51:12 13:02:20 49° 291° (WNW) 13:13:58 29.354- 29.394
SRMSAT 17 Aug 12:52:11 12:58:03 64° 339° (NNW) 13:03:55 437.500
EO-79 17 Aug 12:53:16 12:56:46 25° 78° (ENE) 13:00:14 145.935-145.965
JUGNU 17 Aug 12:53:19 12:56:58 16° 346° (NNW) 13:00:35 437.505
SPROUT 17 Aug 13:04:07 13:05:50 12° 102° (ESE) 13:07:32 437.525
PCSat 17 Aug 13:04:49 13:05:31 10° 250° (WSW) 13:06:12 145.827
NO-84 17 Aug 13:06:39 13:10:01 31° 59° (ENE) 13:13:37 435.350 FM
DUCHIFAT 1 17 Aug 13:28:01 13:32:12 62° 78° (ENE) 13:36:20 145.980
ESTCUBE 1 17 Aug 13:30:27 13:34:41 40° 282° (WNW) 13:38:56 437.505/2401.250
AIST 2D 17 Aug 13:36:01 13:38:12 16° 259° (W) 13:40:22 435.315
BUGSAT 1 17 Aug 13:46:48 13:49:57 21° 78° (ENE) 13:53:03 437.445
VELOX 1 17 Aug 13:56:17 14:00:35 56° 102° (ESE) 14:04:53 145.980
M-CUBED/EXP-1 PRIME 17 Aug 13:57:31 13:58:54 12° 256° (WSW) 14:00:18 437.505
50 SAT 17 Aug 14:07:02 14:09:27 19° 102° (ESE) 14:11:51 437.505
NANOSAT C BR1 17 Aug 14:11:10 14:14:39 25° 258° (WSW) 14:18:08 145.865
POLYITAN 1 17 Aug 14:11:53 14:15:09 22° 258° (WSW) 14:18:24 437.675
DX 1 17 Aug 14:13:22 14:16:22 18° 102° (ESE) 14:19:22 434.975-435.025
QB50P2 17 Aug 14:28:23 14:29:56 12° 258° (WSW) 14:31:30 145.880/145.840
EO-79 17 Aug 14:30:27 14:32:14 12° 258° (WSW) 14:34:01 145.935-145.965
Oscar 19 17 Aug 14:31:53 14:36:22 31° 77° (ENE) 14:40:51 437.125/150
SPROUT 17 Aug 14:37:57 14:41:26 25° 282° (WNW) 14:44:57 437.525
SRMSAT 17 Aug 14:42:40 14:47:25 25° 343° (NNW) 14:52:10 437.500
NO-84 17 Aug 14:45:49 14:47:25 12° 235° (SW) 14:49:03 435.350 FM
Gurwin Techsat 1B 17 Aug 15:09:59 15:15:10 54° 77° (ENE) 15:20:20 435.225
BUGSAT 1 17 Aug 15:22:37 15:25:01 15° 258° (WSW) 15:27:24 437.445
UKube-1 17 Aug 15:35:30 15:39:36 46° 282° (WNW) 15:43:44 .
DX 1 17 Aug 15:49:21 15:52:16 18° 282° (WNW) 15:55:13 434.975-435.025
BEESAT 17 Aug 16:03:20 16:06:57 22° 103° (ESE) 16:10:35 436.000
AO-7 17 Aug 16:06:55 16:13:42 28° 73° (ENE) 16:20:25 .
Oscar 19 17 Aug 16:12:29 16:15:24 15° 257° (WSW) 16:18:20 437.125/150
MOZHAYETS 4 17 Aug 16:24:05 16:28:11 32° 102° (ESE) 16:32:17
ITUPSAT 1 17 Aug 16:33:41 16:38:21 54° 103° (ESE) 16:43:02 437.325
YUBILEINY 17 Aug 16:34:17 16:42:03 35° 93° (E) 16:49:44 435.215
SRMSAT 17 Aug 16:34:58 16:37:18 12° 351° (N) 16:39:38 437.500
JUGNU 17 Aug 16:35:44 16:37:09 11° 7° (N) 16:38:34 437.505
ITAMSAT 1 17 Aug 17:20:35 17:25:47 68° 257° (WSW) 17:30:57 435.822/435.867
BEESAT 3 17 Aug 17:40:31 17:44:12 43° 68° (ENE) 17:47:50 437.485
BEESAT 17 Aug 17:41:05 17:44:26 19° 283° (WNW) 17:47:49 436.000
BEESAT 2 17 Aug 17:47:02 17:48:15 11° 68° (ENE) 17:49:27 435.950
AO-7 17 Aug 17:58:27 18:06:04 40° 254° (WSW) 18:13:43 .
MOZHAYETS 4 17 Aug 18:03:17 18:05:02 12° 282° (WNW) 18:06:48
CUBESAT XI-V 17 Aug 18:09:12 18:13:52 75° 282° (WNW) 18:18:33 437.345
AO-85 17 Aug 18:13:14 18:18:04 85° 69° (ENE) 18:23:14 145.980
JUGNU 17 Aug 18:22:44 18:26:58 20° 16° (NNE) 18:31:13 437.505
YUBILEINY 17 Aug 18:31:02 18:38:26 30° 273° (W) 18:45:50 435.215
DOVE 4 17 Aug 18:35:13 18:40:04 41° 78° (ENE) 18:45:01 437.250
KKS-1 17 Aug 18:41:44 18:46:06 70° 282° (WNW) 18:50:31 437.445
CUTE-I 17 Aug 19:01:31 19:05:14 19° 77° (ENE) 19:08:56 437.470
KAITUO 1B 17 Aug 19:10:26 19:12:46 16° 79° (E) 19:15:06 145.475/437.950
LilacSat-2 17 Aug 19:16:20 19:19:44 33° 79° (E) 19:23:07 437.200
BEESAT 2 17 Aug 19:22:32 19:25:44 24° 248° (WSW) 19:28:55 435.950
XW-2D 17 Aug 19:25:33 19:29:08 45° 79° (ENE) 19:32:42 145.860 - 145.880
STARS 17 Aug 19:32:09 19:36:15 42° 282° (WNW) 19:40:22 437.465
XW-2B 17 Aug 19:36:20 19:40:02 67° 79° (E) 19:43:44 145.730 - 145.750
NUDT-PHONESAT 17 Aug 19:48:05 19:51:44 69° 79° (E) 19:55:21 437.300
XW-2C 17 Aug 19:55:12 19:58:53 55° 259° (W) 20:02:31 145.795 - 145.815
HO-68 17 Aug 19:58:41 20:04:26 26° 75° (ENE) 20:10:09 435.675
JUGNU 17 Aug 20:10:36 20:16:15 50° 21° (NNE) 20:21:55 437.505
XW-2F 17 Aug 20:11:04 20:14:25 32° 258° (WSW) 20:17:45 145.980 - 146.000
SRMSAT 17 Aug 20:14:45 20:17:53 14° 12° (NNE) 20:21:02 437.500
DOVE 4 17 Aug 20:15:29 20:17:28 12° 259° (WSW) 20:19:28 437.250
STRAND 1 17 Aug 20:19:33 20:23:39 25° 103° (ESE) 20:27:45 437.568
XW-2A 17 Aug 20:23:15 20:23:24 10° 79° (E) 20:23:33 145.665 - 145.685
CUTE 1.7 + AOD 2 17 Aug 20:34:23 20:38:26 48° 79° (E) 20:42:29 437.475
CUTE-I 17 Aug 20:40:27 20:44:59 28° 257° (WSW) 20:49:30 437.470
KAITUO 1B 17 Aug 20:44:40 20:46:30 13° 258° (WSW) 20:48:20 145.475/437.950
AAUSAT CUBESAT 2 17 Aug 20:53:37 20:56:17 17° 78° (ENE) 20:58:57 437.432
Tancredo 1 17 Aug 21:00:17 21:03:06 51° 55° (NE) 21:05:55 437.200
nSIGHT-1 17 Aug 21:16:37 21:18:04 13° 54° (NE) 21:19:32 .
AO-73 17 Aug 21:18:52 21:21:37 17° 79° (E) 21:24:19 145.935
SEEDS 17 Aug 21:30:04 21:34:01 43° 259° (WSW) 21:37:58 437.485
CUBEBUG 2 17 Aug 21:39:48 21:44:07 42° 258° (WSW) 21:48:19 437.445
UWE-3 17 Aug 21:40:51 21:45:18 83° 259° (WSW) 21:49:36 435.000/436.395/437.385
HO-68 17 Aug 21:45:31 21:51:50 34° 255° (WSW) 21:58:08 435.675
O/OREOS (USA 219) 17 Aug 21:49:34 21:52:48 19° 76° (ENE) 21:56:01 437.305
XW-2A 17 Aug 21:53:43 21:55:52 16° 258° (WSW) 21:58:00 145.665 - 145.685
STRAND 1 17 Aug 21:58:56 22:02:32 20° 283° (WNW) 22:06:10 437.568
JUGNU 17 Aug 21:59:32 22:05:16 58° 201° (SSW) 22:11:05 437.505
SRMSAT 17 Aug 22:02:25 22:07:38 31° 19° (NNE) 22:12:52 437.500
Oscar 11 17 Aug 22:07:04 22:11:18 59° 79° (ENE) 22:15:31 .
RS-15 17 Aug 22:24:40 22:33:18 25° 67° (ENE) 22:41:35 29.354- 29.394
AAUSAT CUBESAT 2 17 Aug 22:28:43 22:31:28 17° 258° (WSW) 22:34:13 437.432
ZACube-1 17 Aug 22:30:04 22:34:00 34° 258° (WSW) 22:37:51 437.345
DELFI C3 17 Aug 22:35:02 22:38:04 21° 79° (ENE) 22:41:06 145.870
ISS 17 Aug 22:37:55 22:40:50 31° 234° (SW) 22:43:46 437.550
EO-88 17 Aug 22:41:59 22:43:25 12° 79° (ENE) 22:44:50 145.990 - 145.960
FO-29 17 Aug 22:49:30 22:54:36 59° 103° (ESE) 22:59:45 435.910
nSIGHT-1 17 Aug 22:51:57 22:54:14 18° 234° (SW) 22:56:32 .
AO-73 17 Aug 22:54:35 22:57:35 19° 258° (WSW) 23:00:33 145.935
PRISM 17 Aug 23:01:49 23:04:39 18° 102° (ESE) 23:07:28 437.425
Max Valier Satellite 17 Aug 23:10:39 23:14:15 54° 79° (E) 23:17:49 145.860
SO-50 17 Aug 23:17:16 23:21:16 29° 112° (ESE) 23:25:11 436.795
UNISAT 6 17 Aug 23:18:36 23:22:55 56° 102° (ESE) 23:27:20 437.425
O/OREOS (USA 219) 17 Aug 23:28:42 23:31:54 19° 255° (WSW) 23:35:08 437.305
JUGNU 17 Aug 23:49:57 23:54:32 23° 197° (SSW) 23:59:09 437.505
SRMSAT 17 Aug 23:50:56 23:56:56 83° 21° (NNE) 00:02:58 437.500
PCSat 17 Aug 23:53:16 23:58:30 52° 289° (WNW) 00:03:45 145.827
TIGRISAT 17 Aug 23:54:54 23:59:06 48° 282° (WNW) 00:03:27 435.000
ESTCUBE 1 18 Aug 00:09:54 00:12:10 14° 78° (ENE) 00:14:26 437.505/2401.250
DELFI C3 18 Aug 00:10:52 00:12:33 12° 258° (WSW) 00:14:15 145.870
EO-88 18 Aug 00:14:22 00:16:48 17° 259° (WSW) 00:19:14 145.990 - 145.960
M-CUBED/EXP-1 PRIME 18 Aug 00:21:20 00:24:26 23° 104° (ESE) 00:27:22 437.505
LO-87 18 Aug 00:22:37 00:25:59 36° 79° (E) 00:29:18 145.935 - 145.965
RS-15 18 Aug 00:34:22 00:45:20 56° 250° (WSW) 00:55:56 29.354- 29.394
PRISM 18 Aug 00:37:11 00:39:39 16° 282° (WNW) 00:42:07 437.425
NANOSAT C BR1 18 Aug 00:42:19 00:44:40 15° 102° (ESE) 00:47:02 145.865
POLYITAN 1 18 Aug 00:42:48 00:45:38 18° 102° (ESE) 00:48:28 437.675
NO-84 18 Aug 00:51:38 00:54:20 22° 124° (SE) 00:56:52 435.350 FM
SO-50 18 Aug 00:59:18 01:01:26 13° 292° (WNW) 01:03:36 436.795
